Hourly Weather Roundup
Issued by NWS Central Illinois

Home | Current Version | Previous Version | Text Only | Print | Product List | Glossary On
Versions: 1 2 3 4 5 6 7 8 9 10 11 12 13 14 15 16 17 18 19 20 21 22 23 24 25 26 27 28 29 30 31 32 33 34 35 36 37 38 39 40 41 42 43 44 45 46 47 48 49 50
000
NZUS43 KILX 251510
HWRILX

AREA WEATHER ROUNDUP
NATIONAL WEATHER SERVICE, LINCOLN IL
1000 AM CDT MON MAY 25 2015


CITY           SKY/WX    TMP DP  RH WIND       PRES   REMARKS
BLOOMINGTON    PTSUNNY   71  64  78 SW30G36   29.95R
CHAMPAIGN      CLOUDY    76  62  62 SW37G46   29.97R
DANVILLE       CLOUDY    74  66  76 SW24G32   29.96R
DECATUR        CLOUDY    73  61  65 SW22G31   29.98R
EFFINGHAM      CLOUDY    73  65  76 S16G22    30.04S
FLORA          LGT RAIN  70  66  87 SW8       30.06R
GALESBURG      CLOUDY    69  64  84 SW12      29.90R
JACKSONVILLE   CLOUDY    71  63  77 SW15G25   29.98R
LACON          CLOUDY    66  63  87 SW12G20   29.90R
LAWRENCEVILLE  CLOUDY    71  67  87 S15       30.07R
LITCHFIELD     PTSUNNY   70  61  72 W16       30.02R
$$


CITY           SKY/WX    TMP DP  RH WIND       PRES   REMARKS
LINCOLN        CLOUDY    72  63  74 SW12G22   29.94R
MACOMB         CLOUDY    69  64  84 SW17G25   29.95R
MATTOON        CLOUDY    71  66  84 S17G24    30.01R
MT CARMEL AP   CLOUDY    73  66  78 S16       30.06S
OLNEY-NOBLE AP LGT RAIN  68  64  88 S9        30.06R
PARIS          CLOUDY    74  66  76 S23G29    30.03R
PEORIA         CLOUDY    71  63  75 W13       29.92R
PONTIAC        LGT RAIN  68  66  94 SW25      29.92S
RANTOUL        CLOUDY    76  63  65 SW29G36   29.96R
ROBINSON       CLOUDY    70  66  88 S14G21    30.06S
SPRINGFIELD    CLOUDY    71  61  70 SW15G29   29.98R
TAYLORVILLE    CLOUDY    70  61  73 SW21      30.00R
$$

...REGIONAL REPORTS...


CITY           SKY/WX    TMP DP  RH WIND       PRES   REMARKS
CHICAGO O`HARE LGT RAIN  70  64  81 SW18G31   29.85S
KANKAKEE       PTSUNNY   75  65  70 SW28G39   29.91S
MOLINE         CLOUDY    69  62  78 W13G23    29.87R
MOUNT VERNON   CLOUDY    72  64  78 S13       30.07R
PITTSFIELD     PTSUNNY   69  62  78 SW13      29.99F
QUINCY         PTSUNNY   69  62  78 SW10      29.96S
ROCKFORD       PTSUNNY   71  62  73 SW13G24   29.84S
$$


CITY           SKY/WX    TMP DP  RH WIND       PRES   REMARKS
BURLINGTON     PTSUNNY   69  64  84 SW14G21   29.91R
CEDAR RAPIDS   CLOUDY    66  64  93 SW20      29.84R
DES MOINES     PTSUNNY   69  61  75 SW18G25   29.82F
KIRKSVILLE     CLOUDY    68  63  84 W10       29.96R
OTTUMWA        PTSUNNY   68  63  84 SW17      29.86F
ST LOUIS       PTSUNNY   75  61  61 W14G22    30.02R
$$


CITY           SKY/WX    TMP DP  RH WIND       PRES   REMARKS
TERRE HAUTE    LGT RAIN  69  66  90 S14       30.04S
EVANSVILLE     CLOUDY    72  67  84 S14       30.09S
INDIANAPOLIS   CLOUDY    70  63  78 S17G25    30.04S
LAFAYETTE      CLOUDY    72  64  76 S16G32    29.98R
MADISON        PTSUNNY   69  62  78 SW8G18    29.77R
MILWAUKEE      LGT RAIN  68  64  87 SW17G31   29.80R FOG
$$




USA.gov is the U.S. government's official web portal to all federal, state and local government web resources and services.